www.pogodaiklimat.ru

Погода и климат >> Архив погоды >> Россия >> Орловская область >> Орел


АРХИВ ПОГОДЫ в Орле

Время (UTC), дата Ветер
(напр.,м/с)
 
Видим.   Явления Облачность Т
(С)
Тd
(С)
f
(%)
Тe
(С)
Тes
(С)
Комфортность P
(гПа)
Po
(гПа)
Тmin
(С)
Tmax
(С)
R
(мм)
R24
(мм)
S
(см)
15 17.01 ЮВ 6-12
{14}
10 км позёмок {снег, метель} 10/0
[As op]
-5.9 -8.5 82 -14 -14 прохладно 1008.6 984.7 0.3
18 17.01 ЮВ 5-10
{13}
10 км слабый снег {метель} 10/0 600 м
[As op]
-6.6 -9.0 83 -14 -14 по сезону 1007.3 982.4 -4.1 0.5
21 17.01 ЮВ 4
{11}
4000 м слабый снег {метель} 10/10 300 м
[Frnb Ns]
-5.9 -7.8 86 -12 -12 по сезону 1007.2 982.3
00 18.01 ЮВ 3 10 км {снег, метель} 10/0 600 м
[As op]
-5.0 -7.4 83 -10 -10 по сезону 1006.8 981.9
03 18.01 ЮВ 3 2000 м слабый снег 10/10 300 м
[Frnb Ns]
-5.0 -6.3 91 -11 -11 по сезону 1006.7 981.8 -6.7 0.5
06 18.01 ЮВ 3 1000 м снег 10/10 300 м
[Frnb Ns]
-5.5 -6.2 95 -11 -11 по сезону 1005.9 981.2 -6.6 2 4
09 18.01 ЮВ 3 1000 м снег 10/10 300 м
[Frnb Ns]
-4.5 -5.1 96 -10 -10 по сезону 1007.0 982.2
12 18.01 ЮВ 4 10 км слабый снег 10/10 300 м
[Frnb Ns]
-1.4 -2.2 94 -7 -7 по сезону 1006.7 982.2
15 18.01 ЮВ 4
{10}
10 км {снег} 10/10 300 м
[St]
-1.2 -2.9 88 -7 -7 по сезону 1008.0 983.5 6
18 18.01 ЮВ 3
{12}
10 км {снег} 10/10 600 м
[Sc]
-3.0 -4.7 88 -8 -8 по сезону 1009.6 984.9 -0.7 4
21 18.01 ЮВ 5
{12}
10 км слабый снег {метель} 10/10 300 м
[Frnb Ns]
-1.6 -4.0 84 -8 -8 по сезону 1009.5 985.0
00 19.01 ЮВ 4
{10}
10 км позёмок {снег, метель} 10/0 600 м
[As op]
-4.4 -7.5 79 -11 -11 по сезону 1010.5 985.7
03 19.01 ЮВ 4 10 км {метель} 9/4 600 м
[Sc Ac trans]
-6.8 -10.6 74 -13 -13 по сезону 1010.3 985.3 -6.8 0.0
06 19.01 ЮВ 4
{10}
10 км {метель} 10/0
[Ac As]
-9.7 -14.3 69 -17 -17 прохладно 1011.4 986.1 -9.7 0.0 5
09 19.01 ЮВ 4 10 км 10/5 600 м
[Cb calv Ac As]
-8.5 -11.3 80 -15 -15 прохладно 1011.5 986.4
12 19.01 ЮВ 3
{10}
10 км 10/3 300 м
[St Ac As]
-6.9 -9.8 80 -13 -12 по сезону 1011.1 986.1
15 19.01 ЮВ 4
{10}
10 км слабый ливневой снег 10/4 600 м
[Cb calv As op]
-7.1 -9.6 82 -14 -14 прохладно 1011.1 986.1 0.0
18 19.01 ЮВ 4 1000 м ливневой снег 10/10 300 м
[Cb cap]
-6.9 -7.8 93 -14 -14 по сезону 1011.0 986.0 -6.6 0.9
21 19.01 ЮВ 4 2000 м слабый ливневой снег 10/10 300 м
[Cb cap]
-6.0 -7.1 92 -13 -13 по сезону 1010.8 985.9
00 20.01 ЮВ 3 10 км слабый ливневой снег 10/10 300 м
[Cb calv]
-5.7 -6.8 92 -11 -11 по сезону 1010.6 985.7
03 20.01 ЮВ 3 10 км слабый ливневой снег 10/10 600 м
[Cb calv]
-5.8 -6.9 92 -11 -11 по сезону 1009.7 984.8 -7.1 4
06 20.01 ЮВ 3 10 км {ливн. осадки} 10/10 300 м
[Cb calv]
-5.6 -6.7 92 -11 -11 по сезону 1009.5 984.6 -6.9 4 8
09 20.01 ЮВ 2 4000 м слабый ливневой снег 10/10 300 м
[Cb calv]
-3.6 -5.0 90 -8 -8 по сезону 1009.3 984.6
12 20.01 ЮЗ 2 10 км в посл. час ливневой снег 10/10 600 м
[Cb calv]
-1.2 -3.2 86 -5 -5 по сезону 1009.1 984.6
15 20.01 ЮЗ 2 10 км слабый ливневой снег 10/10 600 м
[Cb calv]
-1.8 -3.9 86 -6 -6 по сезону 1009.7 985.2 0.4
18 20.01 Ю 2 10 км {ливн. осадки} 10/10 600 м
[Cb calv]
-1.9 -4.3 84 -6 -6 по сезону 1010.5 985.9 -1.0 0.4
21 20.01 ЮЗ 2 10 км 10/10 600 м
[Cb calv]
-2.1 -4.9 81 -6 -6 по сезону 1010.8 986.2
00 21.01 Ю 1 10 км 10/10 600 м
[Cb calv]
-2.8 -4.8 86 -5 -5 тепло 1010.8 986.2
03 21.01 Ю 1 10 км 10/10 600 м
[Cb calv]
-2.9 -6.7 75 -5 -5 тепло 1010.1 985.4 -3.1 0.0
06 21.01 ЮВ 1 10 км 10/10 600 м
[Cb calv]
-3.4 -7.4 74 -5 -5 тепло 1010.2 985.5 -3.6 8
09 21.01 штиль 0 10 км 10/10 600 м
[Sc]
-2.7 -7.2 71 -4 -4 тепло 1009.4 984.8
12 21.01 СЗ 1 10 км 10/10 600 м
[Sc]
-2.4 -5.7 78 -4 -4 тепло 1009.6 985.0
15 21.01 З 1 10 км 10/10 600 м
[Cb calv]
-2.8 -4.8 86 -5 -5 тепло 1010.3 985.7
18 21.01 З 2 10 км слабый ливневой снег 10/10 600 м
[Cb calv]
-3.5 -5.3 87 -8 -8 по сезону 1011.7 986.9 -2.1 0.2
21 21.01 З 2 10 км {ливн. осадки} 10/10 600 м
[Cb calv]
-3.4 -5.1 88 -8 -8 по сезону 1012.9 988.1
00 22.01 З 2 10 км {ливн. осадки} 10/10 600 м
[Cb calv]
-4.2 -6.8 82 -8 -8 по сезону 1015.3 990.4
03 22.01 З 2 10 км 10/10 600 м
[Sc]
-5.4 -8.7 78 -10 -10 по сезону 1016.8 991.7 -5.5 0.2
06 22.01 З 1 10 км 10/10 600 м
[Sc]
-6.0 -9.1 79 -8 -8 по сезону 1017.6 992.4 -6.1 0.0 8
09 22.01 СЗ 2 10 км слабый ливневой снег 10/10 600 м
[Cb calv]
-5.2 -8.5 78 -9 -9 по сезону 1019.1 994.0
12 22.01 штиль 0 10 км {ливн. осадки} 9/3 600 м
[Sc Ac trans Ci fib]
-5.4 -10.0 70 -6 -6 по сезону 1020.4 995.3
15 22.01 З 1 10 км 6/0
[Ac trans Ci fib]
-10.2 -11.5 90 -13 -13 по сезону 1021.8 996.2 0.0
18 22.01 С 1 10 км 9/0
[Ci fib]
-12.4 -13.7 90 -15 -15 по сезону 1022.9 997.0 -4.0 0.0
21 22.01 С 2 1000 м дымка 10/0
[Cs]
-10.2 -11.5 90 -15 -15 по сезону 1023.7 998.0
00 23.01 СВ 2 4000 м дымка 10/10 600 м
[Sc]
-9.2 -10.8 88 -14 -14 по сезону 1024.2 998.6
03 23.01 С 1 10 км 10/10 600 м
[Sc]
-10.2 -11.5 90 -13 -13 по сезону 1024.4 998.7 -13.1
06 23.01 С 1 10 км 8/5 600 м
[Sc Ci fib]
-12.9 -14.2 90 -15 -15 по сезону 1025.4 999.4 -13.1 8
09 23.01 С 1 10 км 8/0
[Ci sp]
-10.6 -11.9 90 -13 -11 по сезону 1025.5 999.8
12 23.01 СЗ 1 10 км 9/3 600 м
[Sc Ci sp]
-10.6 -11.9 90 -13 -12 по сезону 1026.1 1000.4
15 23.01 С 1 10 км 9/3 600 м
[Sc Ci sp]
-12.3 -13.6 90 -15 -15 прохладно 1027.3 1001.4
18 23.01 ЮЗ 1 10 км 10/0
[As op]
-11.1 -12.4 90 -13 -13 по сезону 1028.4 1002.5 -8.8
21 23.01 С 2 10 км 10/0
[As op]
-10.8 -11.4 95 -15 -15 по сезону 1028.8 1002.9
00 24.01 С 1 10 км 10/0
[As op]
-10.2 -10.8 95 -13 -13 по сезону 1029.7 1003.9
03 24.01 С 1 10 км 10/0
[As op]
-9.8 -10.6 94 -12 -12 по сезону 1030.7 1004.9 -12.3
06 24.01 С 1 10 км 10/6 600 м
[Cb calv As op]
-8.5 -9.2 95 -11 -11 по сезону 1032.8 1007.0 -11.3 8
09 24.01 СЗ 1 10 км 8/8 600 м
[Cb calv]
-8.3 -9.7 90 -11 -10 по сезону 1034.1 1008.3

 

Местоположение метеостанции Орел (Орловская область, Россия): широта 52.93 долгота 36.00 высота над уровнем моря 196 м.

В архиве по умолчанию представлена погода в Орле за последнюю неделю. Архивные данные за месяц целиком и за предыдущие месяцы, начиная с января 2011 года, Вы можете получить, выбрав интересующий диапазон дат из раскрывающегося списка и нажав кнопку "Ввод!".

Внимание! Время в таблицах - всемирное. Для получения местного времени необходимо прибавить поправку, которая в Орле равна 3 ч.

Смотрите также архив погоды в соседних городах и на ближайших метеорологических станциях:

Погода в Болхове (Орловская область, Россия) (56 км)
Погода в Мценске (Орловская область, Россия) (61 км)
Погода в Карачеве (Брянская область, Россия) (70 км)
Погода в Понырях (Курская область, Россия) (71 км)
Погода в Дмитровск-Орловский (Орловская область, Россия) (75 км)
Погода в Верховье (Орловская область, Россия) (86 км)
Погода в Фатеже (Курская область, Россия) (95 км)
Погода в Навле (Брянская область, Россия) (101 км)
Погода в Плавске (Тульская область, Россия) (114 км)
Погода в Брянске (Брянская область, Россия) (118 км)

Пояснения к столбцам:

Ветер - указаны скорость ветра в м/с - средняя за 10 мин, порывы в срок и между сроками (в фигурных скобках) и направление, откуда дует ветер: С - северный, СВ - северо-восточный, В - восточный, ЮВ - юго-восточный, Ю - южный, ЮЗ - юго-западный, З - западный, СЗ - северо-западный.
Видимость - горизонтальная дальность видимости в метрах или километрах. При видимости от 1 до 10 км при отсутствии осадков обычно наблюдается дымка, при ухудшении видимости до 1 км и менее - туман. В сухую погоду видимость может ухудшаться дымом, пылью или мглою.
Явления - указаны атмосферные явления, наблюдавшиеся в срок или в последний час перед сроком; фигурными скобками обозначены явления, наблюдавшиеся между сроками (за 1-3 часа до срока); квадратными скобками обозначены град или гололедные отложения с указанием их диаметра в мм.
Облачность - указаны через наклонную черту общая и нижняя облачность в баллах и высота нижней границы облаков в метрах; квадратными скобками обозначены формы облаков: Ci - перистые, Cs - перисто-слоистые, Cc - перисто-кучевые, Ac - высококучевые, As - высокослоистые, Sc - слоисто-кучевые, Ns - слоисто-дождевые, Cu - кучевые, Cb - кучево-дождевые. Подробнее классификацию облаков см. в Атласе облаков (PDF).
T - Температура воздуха - температура, измеренная на высоте 2 м над землей.
Td - Температура точки росы - температура, при понижении до которой содержащийся в воздухе водяной пар достигнет насыщения.
f - Относительная влажность воздуха - влажноcть воздуха, измеренная на высоте 2 м над землей.
Te - Эффективная температура - температура, которую ощущает одетый по сезону человек в тени. Характеристика душности погоды. При расчете учитывается влияние влажности воздуха и скорости ветра на теплоощущения человека.
Tes - Эффективная температура на солнце - температура, которую ощущает человек, с поправкой на солнечный нагрев. Характеристика знойности погоды. Зависит от высоты солнца над горизонтом, облачности и скорости ветра. Ночью, в пасмурную погоду, а также при ветре 12 м/с и более поправка равна нулю.
P - Атмосферное давление - приведенное к уровню моря атмосферное давление.
Po - Атмосферное давление - измеренное на уровне метеостанции атмосферное давление.
Tmin - Минимальная температура - минимум температуры воздуха на высоте 2 м над землей.
Tmax - Максимальная температура - максимум температуры воздуха на высоте 2 м над землей.
R - Количество осадков - Количество выпавших осадков за период времени, мм. При наведении курсора мыши на число - период времени, за который выпало указанное количество осадков.
R24 - Количество осадков - Количество выпавших осадков за 24 часа, мм.
S - Снежный покров - Высота снежного покрова, см. При наведении курсора мыши на число - состояние снежного покрова и степень покрытия местности в баллах.